Wetterdaten: Sonntag, 02.02.2014
Datum Zeit Temperatur Luftfeuchte Luftdruck Regen Wind Richtung Richtung Taupunkt Windchill Windben
02.02.2014 00:00 -0,9 C 81 % 1008,7 hPa 0,0 l/m 3,5 km/h (1 Bft) W-NW 292 -3,7 C -2,0 C 2,4 km/h (1 Bft)
02.02.2014 00:05 -1,2 C 81 % 1008,6 hPa 0,0 l/m 1,9 km/h (1 Bft) N-NO 22 -4,0 C -1,1 C 2,1 km/h (1 Bft)
02.02.2014 00:10 -1,1 C 81 % 1008,6 hPa 0,0 l/m 0,6 km/h (0 Bft) W-SW 247 -3,9 C -1,0 C 0,0 km/h (0 Bft)
02.02.2014 00:15 -1,1 C 81 % 1008,6 hPa 0,0 l/m 0,3 km/h (0 Bft) W-SW 247 -3,9 C -1,0 C 0,0 km/h (0 Bft)
02.02.2014 00:20 -1,1 C 81 % 1008,6 hPa 0,0 l/m 0,0 km/h (0 Bft) O-SO 112 -3,9 C -0,9 C 0,0 km/h (0 Bft)
02.02.2014 00:25 -1,0 C 81 % 1008,9 hPa 0,0 l/m 0,0 km/h (0 Bft) O 90 -3,8 C -0,9 C 0,0 km/h (0 Bft)
02.02.2014 00:30 -0,7 C 82 % 1008,9 hPa 0,0 l/m 0,0 km/h (0 Bft) SW 225 -3,4 C -0,8 C 0,0 km/h (0 Bft)
02.02.2014 00:35 -0,8 C 82 % 1008,9 hPa 0,0 l/m 0,2 km/h (0 Bft) SW 225 -3,5 C -0,7 C 0,0 km/h (0 Bft)
02.02.2014 00:40 -0,7 C 82 % 1008,9 hPa 0,0 l/m 0,0 km/h (0 Bft) S 180 -3,4 C -0,6 C 0,0 km/h (0 Bft)
02.02.2014 00:45 -0,8 C 82 % 1008,9 hPa 0,0 l/m 0,0 km/h (0 Bft) S 180 -3,5 C -0,6 C 0,0 km/h (0 Bft)
02.02.2014 00:50 -0,7 C 82 % 1008,9 hPa 0,0 l/m 0,0 km/h (0 Bft) O 90 -3,4 C -0,5 C 0,0 km/h (0 Bft)
02.02.2014 00:55 -0,6 C 82 % 1008,9 hPa 0,0 l/m 0,0 km/h (0 Bft) O 90 -3,3 C -0,5 C 0,0 km/h (0 Bft)
02.02.2014 01:00 -0,5 C 82 % 1008,9 hPa 0,0 l/m 0,3 km/h (0 Bft) O 90 -3,2 C -0,4 C 2,3 km/h (1 Bft)
02.02.2014 01:05 -0,5 C 82 % 1009,2 hPa 0,0 l/m 0,3 km/h (0 Bft) O 90 -3,2 C -0,4 C 0,0 km/h (0 Bft)
02.02.2014 01:10 -0,6 C 82 % 1009,2 hPa 0,0 l/m 0,0 km/h (0 Bft) O 90 -3,3 C -0,3 C 0,0 km/h (0 Bft)
02.02.2014 01:15 -0,6 C 82 % 1009,2 hPa 0,0 l/m 0,0 km/h (0 Bft) S 180 -3,3 C -0,3 C 0,0 km/h (0 Bft)
02.02.2014 01:20 -0,6 C 82 % 1009,2 hPa 0,0 l/m 0,0 km/h (0 Bft) S 180 -3,3 C -0,4 C 0,0 km/h (0 Bft)
02.02.2014 01:25 -0,6 C 82 % 1009,2 hPa 0,0 l/m 0,0 km/h (0 Bft) O-SO 112 -3,3 C -0,4 C 0,0 km/h (0 Bft)
02.02.2014 01:30 -0,4 C 82 % 1009,2 hPa 0,0 l/m 0,3 km/h (0 Bft) O 90 -3,1 C -0,3 C 2,7 km/h (1 Bft)
02.02.2014 01:35 -0,2 C 83 % 1009,2 hPa 0,0 l/m 0,8 km/h (0 Bft) O 90 -2,7 C -0,2 C 0,0 km/h (0 Bft)
02.02.2014 01:40 0,1 C 83 % 1009,2 hPa 0,0 l/m 1,1 km/h (1 Bft) O-NO 67 -2,4 C -0,1 C 3,7 km/h (1 Bft)
02.02.2014 01:45 0,3 C 83 % 1009,4 hPa 0,0 l/m 2,3 km/h (1 Bft) O 90 -2,2 C 0,1 C 4,0 km/h (1 Bft)
02.02.2014 01:50 0,2 C 83 % 1009,4 hPa 0,0 l/m 2,1 km/h (1 Bft) S-SO 157 -2,3 C 0,3 C 4,7 km/h (1 Bft)
02.02.2014 01:55 -0,1 C 83 % 1009,4 hPa 0,0 l/m 0,8 km/h (0 Bft) S-SO 157 -2,6 C 0,3 C 0,0 km/h (0 Bft)
02.02.2014 02:00 0,4 C 83 % 1009,4 hPa 0,0 l/m 1,6 km/h (1 Bft) NO 45 -2,1 C 0,2 C 6,9 km/h (2 Bft)
02.02.2014 02:05 0,7 C 82 % 1009,4 hPa 0,0 l/m 3,5 km/h (1 Bft) O 90 -2,0 C -0,4 C 7,4 km/h (2 Bft)
02.02.2014 02:10 0,7 C 80 % 1009,4 hPa 0,0 l/m 5,0 km/h (1 Bft) NO 45 -2,3 C -0,4 C 7,6 km/h (2 Bft)
02.02.2014 02:15 0,6 C 80 % 1009,4 hPa 0,0 l/m 3,2 km/h (1 Bft) NO 45 -2,4 C 0,5 C 0,0 km/h (0 Bft)
02.02.2014 02:18 0,2 C 80 % 1009,4 hPa 0,0 l/m 0,2 km/h (0 Bft) NO 45 -2,8 C 0,7 C 0,0 km/h (0 Bft)
02.02.2014 02:20 0,2 C 80 % 1009,4 hPa 0,0 l/m 0,2 km/h (0 Bft) NO 45 -2,8 C 0,7 C 0,0 km/h (0 Bft)
02.02.2014 02:25 0,2 C 80 % 1009,6 hPa 0,0 l/m 0,0 km/h (0 Bft) O-NO 67 -2,8 C 0,6 C 0,0 km/h (0 Bft)
02.02.2014 02:30 0,4 C 81 % 1009,6 hPa 0,0 l/m 0,2 km/h (0 Bft) N-NO 22 -2,5 C 0,5 C 0,0 km/h (0 Bft)
02.02.2014 02:35 0,3 C 81 % 1009,6 hPa 0,0 l/m 0,2 km/h (0 Bft) O-NO 67 -2,6 C 0,5 C 0,0 km/h (0 Bft)
02.02.2014 02:40 0,2 C 81 % 1009,6 hPa 0,0 l/m 0,0 km/h (0 Bft) O-NO 67 -2,7 C 0,4 C 0,0 km/h (0 Bft)
02.02.2014 02:45 0,2 C 82 % 1009,6 hPa 0,0 l/m 0,0 km/h (0 Bft) NO 45 -2,5 C 0,4 C 0,0 km/h (0 Bft)
02.02.2014 02:50 0,3 C 82 % 1009,6 hPa 0,0 l/m 0,0 km/h (0 Bft) O 90 -2,4 C 0,4 C 0,0 km/h (0 Bft)
02.02.2014 02:55 0,5 C 82 % 1009,6 hPa 0,0 l/m 0,6 km/h (0 Bft) O 90 -2,2 C 0,4 C 2,3 km/h (1 Bft)
02.02.2014 03:00 0,5 C 82 % 1009,6 hPa 0,0 l/m 1,0 km/h (0 Bft) N-NO 22 -2,2 C 0,5 C 1,9 km/h (1 Bft)
02.02.2014 03:05 0,4 C 82 % 1009,6 hPa 0,0 l/m 0,8 km/h (0 Bft) NO 45 -2,3 C 0,5 C 0,0 km/h (0 Bft)
02.02.2014 03:10 0,5 C 83 % 1009,6 hPa 0,0 l/m 0,2 km/h (0 Bft) O 90 -2,0 C 0,5 C 0,0 km/h (0 Bft)
02.02.2014 03:15 0,4 C 83 % 1009,6 hPa 0,0 l/m 0,0 km/h (0 Bft) O 90 -2,1 C 0,4 C 0,0 km/h (0 Bft)
02.02.2014 03:20 0,7 C 83 % 1009,6 hPa 0,0 l/m 0,8 km/h (0 Bft) O 90 -1,8 C 0,4 C 3,9 km/h (1 Bft)
02.02.2014 03:25 0,9 C 83 % 1009,5 hPa 0,0 l/m 1,1 km/h (1 Bft) SO 135 -1,7 C 0,6 C 0,0 km/h (0 Bft)
02.02.2014 03:30 0,5 C 83 % 1009,5 hPa 0,0 l/m 1,0 km/h (0 Bft) O 90 -2,0 C 0,6 C 1,8 km/h (1 Bft)
02.02.2014 03:35 0,9 C 83 % 1009,5 hPa 0,0 l/m 1,9 km/h (1 Bft) O-SO 112 -1,7 C 0,7 C 5,8 km/h (2 Bft)
02.02.2014 03:40 1,1 C 83 % 1009,5 hPa 0,0 l/m 3,5 km/h (1 Bft) O-SO 112 -1,5 C 0,3 C 6,4 km/h (2 Bft)
02.02.2014 03:45 1,1 C 83 % 1009,8 hPa 0,0 l/m 4,2 km/h (1 Bft) O-SO 112 -1,5 C 0,1 C 4,7 km/h (1 Bft)
02.02.2014 03:50 1,1 C 83 % 1009,8 hPa 0,0 l/m 5,3 km/h (1 Bft) O 90 -1,5 C -0,3 C 7,1 km/h (2 Bft)
02.02.2014 03:55 1,0 C 83 % 1009,8 hPa 0,0 l/m 5,6 km/h (1 Bft) O 90 -1,6 C -0,5 C 3,1 km/h (1 Bft)
02.02.2014 04:00 1,0 C 83 % 1009,8 hPa 0,0 l/m 6,3 km/h (2 Bft) O-SO 112 -1,6 C -0,7 C 7,7 km/h (2 Bft)
02.02.2014 04:05 0,9 C 84 % 1009,8 hPa 0,0 l/m 6,3 km/h (2 Bft) O-NO 67 -1,5 C -0,7 C 7,9 km/h (2 Bft)
02.02.2014 04:10 1,0 C 84 % 1009,8 hPa 0,0 l/m 6,4 km/h (2 Bft) O-SO 112 -1,4 C -0,9 C 6,4 km/h (2 Bft)
02.02.2014 04:15 1,0 C 84 % 1009,8 hPa 0,0 l/m 6,8 km/h (2 Bft) O-SO 112 -1,4 C -1,3 C 9,2 km/h (2 Bft)
02.02.2014 04:20 1,0 C 85 % 1009,8 hPa 0,0 l/m 7,4 km/h (2 Bft) O 90 -1,2 C -2,3 C 10,0 km/h (2 Bft)
02.02.2014 04:25 1,0 C 85 % 1009,9 hPa 0,0 l/m 8,2 km/h (2 Bft) O 90 -1,2 C -3,3 C 10,3 km/h (2 Bft)
02.02.2014 04:30 1,0 C 85 % 1009,9 hPa 0,0 l/m 7,7 km/h (2 Bft) O 90 -1,2 C -2,8 C 11,9 km/h (2 Bft)
02.02.2014 04:35 0,9 C 86 % 1009,9 hPa 0,0 l/m 7,4 km/h (2 Bft) O-SO 112 -1,2 C -2,4 C 7,1 km/h (2 Bft)
02.02.2014 04:40 0,9 C 86 % 1009,9 hPa 0,0 l/m 6,4 km/h (2 Bft) O 90 -1,2 C -1,1 C 6,8 km/h (2 Bft)
02.02.2014 04:45 0,9 C 87 % 1010,0 hPa 0,0 l/m 5,8 km/h (2 Bft) O-SO 112 -1,0 C -0,9 C 4,5 km/h (1 Bft)
02.02.2014 04:50 0,8 C 87 % 1010,0 hPa 0,0 l/m 5,3 km/h (1 Bft) SO 135 -1,1 C -0,7 C 5,1 km/h (1 Bft)
02.02.2014 04:55 0,8 C 87 % 1010,0 hPa 0,0 l/m 4,7 km/h (1 Bft) O-SO 112 -1,1 C -0,4 C 5,1 km/h (1 Bft)
02.02.2014 05:00 0,8 C 88 % 1010,0 hPa 0,0 l/m 4,7 km/h (1 Bft) O-SO 112 -1,0 C -0,6 C 5,5 km/h (1 Bft)
02.02.2014 05:05 0,8 C 88 % 1010,1 hPa 0,0 l/m 5,1 km/h (1 Bft) O 90 -1,0 C -0,8 C 4,3 km/h (1 Bft)
02.02.2014 05:10 0,8 C 88 % 1010,1 hPa 0,0 l/m 5,1 km/h (1 Bft) O-SO 112 -1,0 C -0,8 C 6,4 km/h (2 Bft)
02.02.2014 05:15 0,8 C 88 % 1010,1 hPa 0,0 l/m 5,8 km/h (2 Bft) O-NO 67 -1,0 C -1,1 C 5,8 km/h (2 Bft)
02.02.2014 05:20 0,8 C 89 % 1010,1 hPa 0,0 l/m 5,8 km/h (2 Bft) SO 135 -0,8 C -1,1 C 4,2 km/h (1 Bft)
02.02.2014 05:25 0,7 C 89 % 1010,3 hPa 0,0 l/m 5,0 km/h (1 Bft) SO 135 -0,9 C -0,8 C 7,6 km/h (2 Bft)
02.02.2014 05:30 0,7 C 90 % 1010,3 hPa 0,0 l/m 5,1 km/h (1 Bft) O-SO 112 -0,7 C -0,8 C 6,6 km/h (2 Bft)
02.02.2014 05:35 0,7 C 91 % 1010,3 hPa 0,0 l/m 5,6 km/h (1 Bft) O 90 -0,6 C -1,1 C 6,9 km/h (2 Bft)
02.02.2014 05:40 0,6 C 92 % 1010,3 hPa 0,0 l/m 5,8 km/h (2 Bft) SO 135 -0,5 C -1,1 C 5,0 km/h (1 Bft)
02.02.2014 05:45 0,6 C 92 % 1010,3 hPa 0,0 l/m 5,8 km/h (2 Bft) S-SO 157 -0,5 C -1,1 C 6,1 km/h (2 Bft)
02.02.2014 05:50 0,6 C 92 % 1010,3 hPa 0,0 l/m 4,5 km/h (1 Bft) SO 135 -0,5 C -0,6 C 3,1 km/h (1 Bft)
02.02.2014 05:55 0,6 C 93 % 1010,3 hPa 0,0 l/m 3,5 km/h (1 Bft) S 180 -0,4 C 0,0 C 3,5 km/h (1 Bft)
02.02.2014 06:00 0,6 C 93 % 1010,3 hPa 0,0 l/m 2,4 km/h (1 Bft) S-SO 157 -0,4 C 0,7 C 0,0 km/h (0 Bft)
02.02.2014 06:05 0,6 C 93 % 1010,8 hPa 0,0 l/m 1,3 km/h (1 Bft) S-SW 202 -0,4 C 0,6 C 0,0 km/h (0 Bft)
02.02.2014 06:10 0,6 C 93 % 1010,8 hPa 0,0 l/m 0,6 km/h (0 Bft) S 180 -0,4 C 0,6 C 0,0 km/h (0 Bft)
02.02.2014 06:15 0,6 C 93 % 1010,8 hPa 0,0 l/m 0,6 km/h (0 Bft) S-SW 202 -0,4 C 0,5 C 0,0 km/h (0 Bft)
02.02.2014 06:20 0,4 C 94 % 1010,8 hPa 0,0 l/m 0,8 km/h (0 Bft) S 180 -0,5 C 0,5 C 1,8 km/h (1 Bft)
02.02.2014 06:25 0,3 C 94 % 1011,0 hPa 0,0 l/m 1,1 km/h (1 Bft) S-SO 157 -0,5 C 0,4 C 1,9 km/h (1 Bft)
02.02.2014 06:30 0,3 C 94 % 1011,0 hPa 0,0 l/m 0,8 km/h (0 Bft) S 180 -0,5 C 0,4 C 0,0 km/h (0 Bft)
02.02.2014 06:35 0,3 C 94 % 1011,0 hPa 0,0 l/m 0,2 km/h (0 Bft) S-SW 202 -0,5 C 0,4 C 0,0 km/h (0 Bft)
02.02.2014 06:40 0,3 C 94 % 1011,0 hPa 0,0 l/m 0,0 km/h (0 Bft) S-SW 202 -0,5 C 0,4 C 0,0 km/h (0 Bft)
02.02.2014 06:45 0,3 C 94 % 1011,1 hPa 0,0 l/m 0,0 km/h (0 Bft) SO 135 -0,5 C 0,4 C 0,0 km/h (0 Bft)
02.02.2014 06:50 0,3 C 94 % 1011,1 hPa 0,0 l/m 1,0 km/h (0 Bft) SO 135 -0,5 C 0,3 C 2,1 km/h (1 Bft)
02.02.2014 06:55 0,3 C 94 % 1011,1 hPa 0,0 l/m 1,3 km/h (1 Bft) S-SW 202 -0,5 C 0,3 C 2,3 km/h (1 Bft)
02.02.2014 07:00 0,3 C 95 % 1011,1 hPa 0,0 l/m 0,8 km/h (0 Bft) SO 135 -0,4 C 0,3 C 0,0 km/h (0 Bft)
02.02.2014 07:05 0,2 C 95 % 1011,1 hPa 0,0 l/m 0,2 km/h (0 Bft) S-SO 157 -0,5 C 0,3 C 0,0 km/h (0 Bft)
02.02.2014 07:10 0,2 C 95 % 1011,1 hPa 0,0 l/m 0,0 km/h (0 Bft) S-SO 157 -0,5 C 0,3 C 0,0 km/h (0 Bft)
02.02.2014 07:14 0,2 C 95 % 1011,1 hPa 0,0 l/m 0,0 km/h (0 Bft) SO 135 -0,5 C 0,3 C 0,0 km/h (0 Bft)
02.02.2014 07:15 0,2 C 95 % 1011,1 hPa 0,0 l/m 0,0 km/h (0 Bft) SO 135 -0,5 C 0,3 C 0,0 km/h (0 Bft)
02.02.2014 07:20 0,2 C 95 % 1011,1 hPa 0,0 l/m 0,0 km/h (0 Bft) SO 135 -0,5 C 0,3 C 0,0 km/h (0 Bft)
02.02.2014 07:25 0,3 C 95 % 1011,5 hPa 0,0 l/m 0,0 km/h (0 Bft) SO 135 -0,4 C 0,3 C 0,0 km/h (0 Bft)
02.02.2014 07:30 0,3 C 95 % 1011,5 hPa 0,0 l/m 0,2 km/h (0 Bft) O-SO 112 -0,4 C 0,3 C 2,4 km/h (1 Bft)
02.02.2014 07:35 0,4 C 95 % 1011,5 hPa 0,0 l/m 0,6 km/h (0 Bft) S-SO 157 -0,3 C 0,4 C 2,7 km/h (1 Bft)
02.02.2014 07:40 0,4 C 95 % 1011,5 hPa 0,0 l/m 2,6 km/h (1 Bft) O-SO 112 -0,3 C 0,3 C 6,8 km/h (2 Bft)
02.02.2014 07:45 0,4 C 95 % 1011,8 hPa 0,0 l/m 4,2 km/h (1 Bft) O-SO 112 -0,3 C -0,7 C 6,0 km/h (2 Bft)
02.02.2014 07:50 0,5 C 95 % 1011,8 hPa 0,0 l/m 4,3 km/h (1 Bft) S-SO 157 -0,2 C -0,7 C 3,4 km/h (1 Bft)
02.02.2014 07:55 0,5 C 95 % 1011,8 hPa 0,0 l/m 4,2 km/h (1 Bft) O 90 -0,2 C -0,6 C 4,5 km/h (1 Bft)
02.02.2014 08:00 0,5 C 95 % 1011,8 hPa 0,0 l/m 3,7 km/h (1 Bft) O 90 -0,2 C -0,2 C 3,9 km/h (1 Bft)
02.02.2014 08:05 0,6 C 95 % 1012,0 hPa 0,0 l/m 3,7 km/h (1 Bft) O-SO 112 -0,1 C -0,2 C 3,9 km/h (1 Bft)
02.02.2014 08:10 0,6 C 95 % 1012,0 hPa 0,0 l/m 3,9 km/h (1 Bft) N-NO 22 -0,1 C -0,2 C 3,5 km/h (1 Bft)
02.02.2014 08:15 0,6 C 95 % 1012,0 hPa 0,0 l/m 3,7 km/h (1 Bft) SO 135 -0,1 C -0,1 C 3,4 km/h (1 Bft)
02.02.2014 08:20 0,6 C 95 % 1012,0 hPa 0,0 l/m 4,2 km/h (1 Bft) O-SO 112 -0,1 C -0,4 C 5,3 km/h (1 Bft)
02.02.2014 08:25 0,6 C 95 % 1012,2 hPa 0,0 l/m 4,5 km/h (1 Bft) O 90 -0,1 C -0,6 C 5,0 km/h (1 Bft)
02.02.2014 08:30 0,6 C 95 % 1012,2 hPa 0,0 l/m 3,7 km/h (1 Bft) O 90 -0,1 C -0,1 C 5,1 km/h (1 Bft)
02.02.2014 08:35 0,6 C 95 % 1012,2 hPa 0,0 l/m 3,5 km/h (1 Bft) O 90 -0,1 C 0,1 C 6,3 km/h (2 Bft)
02.02.2014 08:40 0,7 C 95 % 1012,2 hPa 0,0 l/m 3,4 km/h (1 Bft) O-NO 67 -0,0 C 0,2 C 3,5 km/h (1 Bft)
02.02.2014 08:45 0,7 C 95 % 1012,3 hPa 0,0 l/m 2,4 km/h (1 Bft) N-NO 22 -0,0 C 0,9 C 0,0 km/h (0 Bft)
02.02.2014 08:50 0,7 C 95 % 1012,3 hPa 0,0 l/m 0,6 km/h (0 Bft) O 90 -0,0 C 0,9 C 2,1 km/h (1 Bft)
02.02.2014 08:55 0,7 C 95 % 1012,3 hPa 0,0 l/m 0,2 km/h (0 Bft) O 90 -0,0 C 1,0 C 0,0 km/h (0 Bft)
02.02.2014 09:00 0,8 C 95 % 1012,3 hPa 0,0 l/m 0,2 km/h (0 Bft) O 90 0,1 C 1,0 C 0,0 km/h (0 Bft)
02.02.2014 09:05 0,8 C 95 % 1012,6 hPa 0,0 l/m 0,0 km/h (0 Bft) O-NO 67 0,1 C 1,0 C 0,0 km/h (0 Bft)
02.02.2014 09:10 1,0 C 95 % 1012,6 hPa 0,0 l/m 0,0 km/h (0 Bft) O 90 0,3 C 1,1 C 0,0 km/h (0 Bft)
02.02.2014 09:15 0,9 C 96 % 1012,6 hPa 0,0 l/m 0,0 km/h (0 Bft) S 180 0,3 C 1,2 C 0,0 km/h (0 Bft)
02.02.2014 09:20 0,9 C 96 % 1012,6 hPa 0,0 l/m 0,0 km/h (0 Bft) S 180 0,3 C 1,1 C 0,0 km/h (0 Bft)
02.02.2014 09:25 0,8 C 96 % 1013,1 hPa 0,0 l/m 0,0 km/h (0 Bft) S-SW 202 0,2 C 1,1 C 0,0 km/h (0 Bft)
02.02.2014 09:30 0,8 C 96 % 1013,1 hPa 0,0 l/m 0,2 km/h (0 Bft) S 180 0,2 C 1,1 C 0,0 km/h (0 Bft)
02.02.2014 09:35 0,9 C 96 % 1013,1 hPa 0,0 l/m 0,2 km/h (0 Bft) O-SO 112 0,3 C 1,1 C 0,0 km/h (0 Bft)
02.02.2014 09:40 1,1 C 95 % 1013,1 hPa 0,0 l/m 0,0 km/h (0 Bft) O-SO 112 0,4 C 1,2 C 0,0 km/h (0 Bft)
02.02.2014 09:45 1,1 C 95 % 1013,1 hPa 0,0 l/m 0,0 km/h (0 Bft) O-SO 112 0,4 C 1,4 C 0,0 km/h (0 Bft)
02.02.2014 09:50 1,2 C 95 % 1013,1 hPa 0,0 l/m 0,0 km/h (0 Bft) O-SO 112 0,5 C 1,5 C 0,0 km/h (0 Bft)
02.02.2014 09:55 1,3 C 96 % 1013,1 hPa 0,0 l/m 0,0 km/h (0 Bft) O-SO 112 0,7 C 1,6 C 0,0 km/h (0 Bft)
02.02.2014 10:00 1,6 C 96 % 1013,1 hPa 0,0 l/m 0,0 km/h (0 Bft) O-SO 112 1,0 C 1,8 C 0,0 km/h (0 Bft)
02.02.2014 10:05 1,5 C 96 % 1013,4 hPa 0,0 l/m 0,0 km/h (0 Bft) O-SO 112 0,9 C 2,0 C 0,0 km/h (0 Bft)
02.02.2014 10:10 1,9 C 96 % 1013,4 hPa 0,0 l/m 0,0 km/h (0 Bft) O-SO 112 1,3 C 2,2 C 0,0 km/h (0 Bft)
02.02.2014 10:15 1,9 C 96 % 1013,4 hPa 0,0 l/m 0,2 km/h (0 Bft) S-SO 157 1,3 C 2,3 C 0,0 km/h (0 Bft)
02.02.2014 10:20 2,1 C 95 % 1013,4 hPa 0,0 l/m 0,2 km/h (0 Bft) S 180 1,4 C 2,6 C 0,0 km/h (0 Bft)
02.02.2014 10:25 2,5 C 95 % 1013,4 hPa 0,0 l/m 0,0 km/h (0 Bft) S 180 1,8 C 2,8 C 0,0 km/h (0 Bft)
02.02.2014 10:30 2,5 C 95 % 1013,4 hPa 0,0 l/m 0,0 km/h (0 Bft) S-SW 202 1,8 C 2,9 C 0,0 km/h (0 Bft)
02.02.2014 10:35 2,5 C 95 % 1013,4 hPa 0,0 l/m 0,0 km/h (0 Bft) S-SW 202 1,8 C 2,9 C 0,0 km/h (0 Bft)
02.02.2014 10:40 2,7 C 95 % 1013,4 hPa 0,0 l/m 0,2 km/h (0 Bft) W-SW 247 2,0 C 2,8 C 0,0 km/h (0 Bft)
02.02.2014 10:45 2,9 C 95 % 1013,9 hPa 0,0 l/m 0,2 km/h (0 Bft) S 180 2,2 C 3,0 C 0,0 km/h (0 Bft)
02.02.2014 10:50 2,7 C 95 % 1013,9 hPa 0,0 l/m 0,0 km/h (0 Bft) W-SW 247 2,0 C 3,1 C 0,0 km/h (0 Bft)
02.02.2014 10:55 2,6 C 95 % 1013,9 hPa 0,0 l/m 0,0 km/h (0 Bft) W-NW 292 1,9 C 3,1 C 0,0 km/h (0 Bft)
02.02.2014 11:00 2,8 C 95 % 1013,9 hPa 0,0 l/m 0,0 km/h (0 Bft) S-SW 202 2,1 C 3,1 C 0,0 km/h (0 Bft)
02.02.2014 11:05 3,0 C 94 % 1014,1 hPa 0,0 l/m 0,0 km/h (0 Bft) W-SW 247 2,1 C 3,2 C 0,0 km/h (0 Bft)
02.02.2014 11:10 3,3 C 94 % 1014,1 hPa 0,0 l/m 0,0 km/h (0 Bft) W-SW 247 2,4 C 3,4 C 0,0 km/h (0 Bft)
02.02.2014 11:15 3,6 C 94 % 1014,1 hPa 0,0 l/m 0,0 km/h (0 Bft) W-SW 247 2,7 C 3,5 C 0,0 km/h (0 Bft)
02.02.2014 11:20 3,9 C 93 % 1014,1 hPa 0,0 l/m 0,0 km/h (0 Bft) S 180 2,9 C 3,8 C 0,0 km/h (0 Bft)
02.02.2014 11:25 4,3 C 93 % 1014,3 hPa 0,0 l/m 0,0 km/h (0 Bft) W-SW 247 3,3 C 4,2 C 0,0 km/h (0 Bft)
02.02.2014 11:30 4,0 C 91 % 1014,3 hPa 0,0 l/m 0,0 km/h (0 Bft) W 270 2,7 C 4,9 C 0,0 km/h (0 Bft)
02.02.2014 11:35 4,5 C 91 % 1014,3 hPa 0,0 l/m 0,2 km/h (0 Bft) S 180 3,2 C 5,1 C 0,0 km/h (0 Bft)
02.02.2014 11:40 5,1 C 91 % 1014,3 hPa 0,0 l/m 0,6 km/h (0 Bft) S 180 3,8 C 5,4 C 2,1 km/h (1 Bft)
02.02.2014 11:45 5,4 C 91 % 1014,7 hPa 0,0 l/m 0,8 km/h (0 Bft) S 180 4,1 C 5,5 C 2,1 km/h (1 Bft)
02.02.2014 11:50 5,5 C 89 % 1014,7 hPa 0,0 l/m 0,3 km/h (0 Bft) S-SW 202 3,8 C 5,9 C 0,0 km/h (0 Bft)
02.02.2014 11:55 5,6 C 89 % 1014,7 hPa 0,0 l/m 0,6 km/h (0 Bft) S 180 3,9 C 6,0 C 3,7 km/h (1 Bft)
02.02.2014 12:00 5,9 C 89 % 1014,7 hPa 0,0 l/m 1,0 km/h (0 Bft) W 270 4,2 C 5,8 C 1,9 km/h (1 Bft)
02.02.2014 12:05 5,7 C 89 % 1015,1 hPa 0,0 l/m 0,6 km/h (0 Bft) W 270 4,0 C 5,8 C 0,0 km/h (0 Bft)
02.02.2014 12:10 5,2 C 88 % 1015,1 hPa 0,0 l/m 0,5 km/h (0 Bft) W-SW 247 3,4 C 5,7 C 3,7 km/h (1 Bft)
02.02.2014 12:15 5,1 C 88 % 1015,1 hPa 0,0 l/m 1,0 km/h (0 Bft) S-SW 202 3,3 C 5,5 C 0,0 km/h (0 Bft)
02.02.2014 12:20 5,1 C 86 % 1015,1 hPa 0,0 l/m 1,4 km/h (1 Bft) W-SW 247 3,0 C 5,7 C 5,1 km/h (1 Bft)
02.02.2014 12:25 5,0 C 86 % 1015,2 hPa 0,0 l/m 1,6 km/h (1 Bft) S-SW 202 2,9 C 5,7 C 1,9 km/h (1 Bft)
02.02.2014 12:30 4,5 C 86 % 1015,2 hPa 0,0 l/m 1,6 km/h (1 Bft) S-SW 202 2,4 C 5,7 C 0,0 km/h (0 Bft)
02.02.2014 12:35 4,6 C 86 % 1015,2 hPa 0,0 l/m 1,4 km/h (1 Bft) W-SW 247 2,5 C 5,5 C 4,8 km/h (1 Bft)
02.02.2014 12:40 4,4 C 87 % 1015,2 hPa 0,0 l/m 2,3 km/h (1 Bft) W 270 2,4 C 5,2 C 4,3 km/h (1 Bft)
02.02.2014 12:45 4,1 C 87 % 1015,4 hPa 0,0 l/m 2,6 km/h (1 Bft) S-SW 202 2,1 C 4,9 C 3,1 km/h (1 Bft)
02.02.2014 12:50 3,3 C 87 % 1015,4 hPa 0,0 l/m 2,4 km/h (1 Bft) W-SW 247 1,3 C 4,2 C 5,0 km/h (1 Bft)
02.02.2014 12:55 3,2 C 87 % 1015,4 hPa 0,0 l/m 2,6 km/h (1 Bft) S-SW 202 1,2 C 3,9 C 4,3 km/h (1 Bft)
02.02.2014 13:00 3,1 C 88 % 1015,4 hPa 0,0 l/m 3,5 km/h (1 Bft) W-SW 247 1,3 C 3,1 C 6,4 km/h (2 Bft)
02.02.2014 13:05 3,0 C 88 % 1015,2 hPa 0,0 l/m 3,9 km/h (1 Bft) W-SW 247 1,2 C 2,8 C 3,2 km/h (1 Bft)
02.02.2014 13:10 2,9 C 89 % 1015,2 hPa 0,0 l/m 2,9 km/h (1 Bft) W-SW 247 1,3 C 3,1 C 4,5 km/h (1 Bft)
02.02.2014 13:13 3,0 C 89 % 1015,2 hPa 0,0 l/m 2,3 km/h (1 Bft) W-SW 247 1,4 C 3,1 C 4,0 km/h (1 Bft)
02.02.2014 13:15 3,0 C 89 % 1015,2 hPa 0,0 l/m 2,3 km/h (1 Bft) W-SW 247 1,4 C 3,1 C 4,0 km/h (1 Bft)
02.02.2014 13:20 3,1 C 89 % 1015,2 hPa 0,0 l/m 2,1 km/h (1 Bft) W-SW 247 1,5 C 3,2 C 2,3 km/h (1 Bft)
02.02.2014 13:25 3,0 C 89 % 1015,2 hPa 0,0 l/m 2,4 km/h (1 Bft) W-SW 247 1,4 C 3,2 C 5,1 km/h (1 Bft)
02.02.2014 13:30 3,0 C 90 % 1015,2 hPa 0,0 l/m 2,6 km/h (1 Bft) W-SW 247 1,5 C 3,1 C 5,0 km/h (1 Bft)
02.02.2014 13:35 3,0 C 90 % 1015,2 hPa 0,0 l/m 2,7 km/h (1 Bft) W-SW 247 1,5 C 3,0 C 4,0 km/h (1 Bft)
02.02.2014 13:40 2,9 C 91 % 1015,2 hPa 0,0 l/m 2,7 km/h (1 Bft) W-SW 247 1,6 C 2,9 C 1,6 km/h (1 Bft)
02.02.2014 13:45 3,0 C 90 % 1015,1 hPa 0,0 l/m 2,6 km/h (1 Bft) S-SW 202 1,5 C 3,0 C 4,0 km/h (1 Bft)
02.02.2014 13:50 2,7 C 91 % 1015,1 hPa 0,0 l/m 3,9 km/h (1 Bft) S 180 1,4 C 2,3 C 5,3 km/h (1 Bft)
02.02.2014 13:55 2,6 C 91 % 1015,1 hPa 0,0 l/m 4,2 km/h (1 Bft) W-SW 247 1,3 C 1,9 C 4,0 km/h (1 Bft)
02.02.2014 14:00 2,3 C 91 % 1015,1 hPa 0,0 l/m 3,5 km/h (1 Bft) SW 225 1,0 C 2,1 C 3,4 km/h (1 Bft)
02.02.2014 14:05 2,4 C 91 % 1015,3 hPa 0,0 l/m 3,4 km/h (1 Bft) W-SW 247 1,1 C 2,2 C 6,4 km/h (2 Bft)
02.02.2014 14:10 2,2 C 92 % 1015,3 hPa 0,0 l/m 3,1 km/h (1 Bft) W-SW 247 1,0 C 2,3 C 3,5 km/h (1 Bft)
02.02.2014 14:15 2,0 C 91 % 1015,3 hPa 0,0 l/m 2,9 km/h (1 Bft) W-NW 292 0,7 C 2,4 C 5,1 km/h (1 Bft)
02.02.2014 14:20 2,0 C 91 % 1015,3 hPa 0,0 l/m 2,7 km/h (1 Bft) W 270 0,7 C 2,4 C 1,8 km/h (1 Bft)
02.02.2014 14:25 2,1 C 91 % 1015,5 hPa 0,0 l/m 2,1 km/h (1 Bft) W 270 0,8 C 2,5 C 2,1 km/h (1 Bft)
02.02.2014 14:30 2,0 C 91 % 1015,5 hPa 0,0 l/m 1,0 km/h (0 Bft) W-NW 292 0,7 C 2,5 C 2,1 km/h (1 Bft)
02.02.2014 14:35 2,0 C 91 % 1015,5 hPa 0,0 l/m 1,4 km/h (1 Bft) W-NW 292 0,7 C 2,5 C 4,5 km/h (1 Bft)
02.02.2014 14:40 2,0 C 92 % 1015,5 hPa 0,0 l/m 2,4 km/h (1 Bft) W-NW 292 0,8 C 2,5 C 4,5 km/h (1 Bft)
02.02.2014 14:45 2,0 C 92 % 1015,5 hPa 0,0 l/m 3,1 km/h (1 Bft) W-NW 292 0,8 C 2,1 C 3,9 km/h (1 Bft)
02.02.2014 14:50 1,9 C 92 % 1015,5 hPa 0,0 l/m 3,1 km/h (1 Bft) W 270 0,7 C 2,0 C 2,9 km/h (1 Bft)
02.02.2014 14:55 1,9 C 93 % 1015,5 hPa 0,0 l/m 2,4 km/h (1 Bft) W 270 0,9 C 2,3 C 3,4 km/h (1 Bft)
02.02.2014 15:00 1,9 C 93 % 1015,5 hPa 0,0 l/m 2,1 km/h (1 Bft) NW 315 0,9 C 2,3 C 1,9 km/h (1 Bft)
02.02.2014 15:05 1,8 C 93 % 1015,6 hPa 0,0 l/m 1,8 km/h (1 Bft) W 270 0,8 C 2,3 C 0,0 km/h (0 Bft)
02.02.2014 15:10 1,8 C 93 % 1015,6 hPa 0,0 l/m 1,4 km/h (1 Bft) SW 225 0,8 C 2,2 C 3,9 km/h (1 Bft)
02.02.2014 15:15 1,8 C 93 % 1015,6 hPa 0,0 l/m 1,8 km/h (1 Bft) W-NW 292 0,8 C 2,2 C 2,3 km/h (1 Bft)
02.02.2014 15:20 1,8 C 93 % 1015,6 hPa 0,0 l/m 2,4 km/h (1 Bft) W-NW 292 0,8 C 2,1 C 3,2 km/h (1 Bft)
02.02.2014 15:25 1,8 C 93 % 1015,7 hPa 0,0 l/m 2,1 km/h (1 Bft) W-SW 247 0,8 C 2,0 C 2,1 km/h (1 Bft)
02.02.2014 15:30 1,7 C 93 % 1015,7 hPa 0,0 l/m 0,6 km/h (0 Bft) W-SW 247 0,7 C 2,1 C 1,6 km/h (1 Bft)
02.02.2014 15:35 1,7 C 93 % 1015,7 hPa 0,0 l/m 0,6 km/h (0 Bft) N-NW 337 0,7 C 2,1 C 0,0 km/h (0 Bft)
02.02.2014 15:40 1,5 C 93 % 1015,7 hPa 0,0 l/m 0,8 km/h (0 Bft) W-NW 292 0,5 C 2,0 C 2,3 km/h (1 Bft)
02.02.2014 15:45 1,5 C 93 % 1015,4 hPa 0,0 l/m 0,6 km/h (0 Bft) NW 315 0,5 C 1,9 C 0,0 km/h (0 Bft)
02.02.2014 15:50 1,4 C 93 % 1015,4 hPa 0,0 l/m 1,0 km/h (0 Bft) W 270 0,4 C 1,9 C 0,0 km/h (0 Bft)
02.02.2014 15:55 1,4 C 94 % 1015,4 hPa 0,0 l/m 0,6 km/h (0 Bft) N-NW 337 0,5 C 1,8 C 0,0 km/h (0 Bft)
02.02.2014 16:00 1,2 C 94 % 1015,4 hPa 0,0 l/m 0,3 km/h (0 Bft) N-NW 337 0,3 C 1,7 C 0,0 km/h (0 Bft)
02.02.2014 16:05 1,2 C 93 % 1016,0 hPa 0,0 l/m 0,3 km/h (0 Bft) NW 315 0,2 C 1,6 C 0,0 km/h (0 Bft)
02.02.2014 16:10 1,2 C 94 % 1016,0 hPa 0,0 l/m 0,6 km/h (0 Bft) N 360 0,3 C 1,5 C 0,0 km/h (0 Bft)
02.02.2014 16:15 1,1 C 94 % 1016,0 hPa 0,0 l/m 0,5 km/h (0 Bft) N 360 0,2 C 1,4 C 0,0 km/h (0 Bft)
02.02.2014 16:20 1,1 C 94 % 1016,0 hPa 0,0 l/m 0,0 km/h (0 Bft) N 360 0,2 C 1,4 C 0,0 km/h (0 Bft)
02.02.2014 16:25 1,0 C 94 % 1016,1 hPa 0,0 l/m 0,0 km/h (0 Bft) N 360 0,1 C 1,3 C 0,0 km/h (0 Bft)
02.02.2014 16:30 1,0 C 94 % 1016,1 hPa 0,0 l/m 0,0 km/h (0 Bft) N 360 0,1 C 1,2 C 0,0 km/h (0 Bft)
02.02.2014 16:35 0,9 C 94 % 1016,1 hPa 0,0 l/m 0,0 km/h (0 Bft) N-NW 337 0,0 C 1,1 C 0,0 km/h (0 Bft)
02.02.2014 16:40 0,8 C 94 % 1016,1 hPa 0,0 l/m 0,0 km/h (0 Bft) N 360 -0,1 C 1,0 C 0,0 km/h (0 Bft)
02.02.2014 16:45 0,7 C 94 % 1016,4 hPa 0,0 l/m 0,0 km/h (0 Bft) N 360 -0,2 C 0,9 C 0,0 km/h (0 Bft)
02.02.2014 16:50 0,7 C 95 % 1016,4 hPa 0,0 l/m 0,0 km/h (0 Bft) N 360 -0,0 C 0,8 C 0,0 km/h (0 Bft)
02.02.2014 16:55 0,6 C 95 % 1016,4 hPa 0,0 l/m 0,0 km/h (0 Bft) N 360 -0,1 C 0,8 C 0,0 km/h (0 Bft)
02.02.2014 17:00 0,6 C 95 % 1016,4 hPa 0,0 l/m 0,0 km/h (0 Bft) NW 315 -0,1 C 0,7 C 0,0 km/h (0 Bft)
02.02.2014 17:05 0,6 C 95 % 1016,6 hPa 0,0 l/m 0,0 km/h (0 Bft) N 360 -0,1 C 0,6 C 0,0 km/h (0 Bft)
02.02.2014 17:10 0,5 C 95 % 1016,6 hPa 0,0 l/m 0,0 km/h (0 Bft) N 360 -0,2 C 0,6 C 0,0 km/h (0 Bft)
02.02.2014 17:15 0,5 C 95 % 1016,6 hPa 0,0 l/m 0,0 km/h (0 Bft) N 360 -0,2 C 0,6 C 0,0 km/h (0 Bft)
02.02.2014 17:20 0,5 C 95 % 1016,6 hPa 0,0 l/m 0,0 km/h (0 Bft) W-NW 292 -0,2 C 0,5 C 0,0 km/h (0 Bft)
02.02.2014 17:25 0,4 C 95 % 1016,7 hPa 0,0 l/m 0,0 km/h (0 Bft) NW 315 -0,3 C 0,5 C 0,0 km/h (0 Bft)
02.02.2014 17:30 0,3 C 95 % 1016,7 hPa 0,0 l/m 0,2 km/h (0 Bft) N-NO 22 -0,4 C 0,4 C 2,3 km/h (1 Bft)
02.02.2014 17:35 0,3 C 95 % 1016,7 hPa 0,0 l/m 0,2 km/h (0 Bft) N-NO 22 -0,4 C 0,4 C 0,0 km/h (0 Bft)
02.02.2014 17:40 0,3 C 95 % 1016,7 hPa 0,0 l/m 0,2 km/h (0 Bft) W-NW 292 -0,4 C 0,4 C 0,0 km/h (0 Bft)
02.02.2014 17:45 0,3 C 95 % 1016,8 hPa 0,0 l/m 0,0 km/h (0 Bft) W-NW 292 -0,4 C 0,4 C 0,0 km/h (0 Bft)
02.02.2014 17:50 0,2 C 96 % 1016,8 hPa 0,0 l/m 0,0 km/h (0 Bft) N 360 -0,4 C 0,3 C 0,0 km/h (0 Bft)
02.02.2014 17:55 0,2 C 96 % 1016,8 hPa 0,0 l/m 0,0 km/h (0 Bft) N 360 -0,4 C 0,3 C 0,0 km/h (0 Bft)
02.02.2014 18:00 0,2 C 96 % 1016,8 hPa 0,0 l/m 0,0 km/h (0 Bft) N 360 -0,4 C 0,3 C 0,0 km/h (0 Bft)
02.02.2014 18:05 0,2 C 96 % 1016,9 hPa 0,0 l/m 0,0 km/h (0 Bft) N 360 -0,4 C 0,3 C 0,0 km/h (0 Bft)
02.02.2014 18:10 0,2 C 96 % 1016,9 hPa 0,0 l/m 0,0 km/h (0 Bft) N 360 -0,4 C 0,3 C 0,0 km/h (0 Bft)
02.02.2014 18:15 0,2 C 96 % 1016,9 hPa 0,0 l/m 0,0 km/h (0 Bft) N 360 -0,4 C 0,3 C 0,0 km/h (0 Bft)
02.02.2014 18:20 0,2 C 96 % 1016,9 hPa 0,0 l/m 0,0 km/h (0 Bft) N 360 -0,4 C 0,3 C 0,0 km/h (0 Bft)
02.02.2014 18:25 0,2 C 96 % 1017,0 hPa 0,0 l/m 0,0 km/h (0 Bft) N 360 -0,4 C 0,3 C 0,0 km/h (0 Bft)
02.02.2014 18:30 0,2 C 96 % 1017,0 hPa 0,0 l/m 0,0 km/h (0 Bft) N 360 -0,4 C 0,3 C 0,0 km/h (0 Bft)
02.02.2014 18:35 0,2 C 96 % 1017,0 hPa 0,0 l/m 0,0 km/h (0 Bft) N 360 -0,4 C 0,3 C 0,0 km/h (0 Bft)
02.02.2014 18:40 0,2 C 96 % 1017,0 hPa 0,0 l/m 0,0 km/h (0 Bft) N 360 -0,4 C 0,3 C 0,0 km/h (0 Bft)
02.02.2014 18:45 0,2 C 96 % 1017,1 hPa 0,0 l/m 0,0 km/h (0 Bft) N 360 -0,4 C 0,3 C 0,0 km/h (0 Bft)
02.02.2014 18:50 0,2 C 96 % 1017,1 hPa 0,0 l/m 0,0 km/h (0 Bft) N 360 -0,4 C 0,3 C 0,0 km/h (0 Bft)
02.02.2014 18:55 0,2 C 96 % 1017,1 hPa 0,0 l/m 0,0 km/h (0 Bft) N 360 -0,4 C 0,3 C 0,0 km/h (0 Bft)
02.02.2014 19:00 0,1 C 96 % 1017,1 hPa 0,0 l/m 0,0 km/h (0 Bft) N 360 -0,5 C 0,3 C 0,0 km/h (0 Bft)
02.02.2014 19:05 0,1 C 96 % 1016,8 hPa 0,0 l/m 0,0 km/h (0 Bft) N 360 -0,5 C 0,3 C 0,0 km/h (0 Bft)
02.02.2014 19:10 0,1 C 96 % 1016,8 hPa 0,0 l/m 0,0 km/h (0 Bft) N 360 -0,5 C 0,3 C 0,0 km/h (0 Bft)
02.02.2014 19:13 0,1 C 96 % 1016,8 hPa 0,0 l/m 0,0 km/h (0 Bft) N 360 -0,5 C 0,3 C 0,0 km/h (0 Bft)
02.02.2014 19:15 0,1 C 96 % 1016,8 hPa 0,0 l/m 0,0 km/h (0 Bft) N 360 -0,5 C 0,3 C 0,0 km/h (0 Bft)
02.02.2014 19:20 0,1 C 96 % 1016,8 hPa 0,0 l/m 0,0 km/h (0 Bft) N 360 -0,5 C 0,3 C 0,0 km/h (0 Bft)
02.02.2014 19:25 0,2 C 96 % 1016,9 hPa 0,0 l/m 0,0 km/h (0 Bft) N 360 -0,4 C 0,3 C 0,0 km/h (0 Bft)
02.02.2014 19:30 0,2 C 96 % 1016,9 hPa 0,0 l/m 0,0 km/h (0 Bft) N 360 -0,4 C 0,3 C 0,0 km/h (0 Bft)
02.02.2014 19:35 0,1 C 96 % 1016,9 hPa 0,0 l/m 0,0 km/h (0 Bft) N 360 -0,5 C 0,3 C 0,0 km/h (0 Bft)
02.02.2014 19:40 0,1 C 96 % 1016,9 hPa 0,0 l/m 0,0 km/h (0 Bft) N 360 -0,5 C 0,3 C 0,0 km/h (0 Bft)
02.02.2014 19:45 0,1 C 96 % 1017,4 hPa 0,0 l/m 0,0 km/h (0 Bft) N 360 -0,5 C 0,3 C 0,0 km/h (0 Bft)
02.02.2014 19:50 0,1 C 97 % 1017,4 hPa 0,0 l/m 0,0 km/h (0 Bft) N 360 -0,3 C 0,3 C 0,0 km/h (0 Bft)
02.02.2014 19:55 0,1 C 97 % 1017,4 hPa 0,0 l/m 0,0 km/h (0 Bft) N 360 -0,3 C 0,3 C 0,0 km/h (0 Bft)
02.02.2014 20:00 0,1 C 97 % 1017,4 hPa 0,0 l/m 0,0 km/h (0 Bft) N 360 -0,3 C 0,3 C 0,0 km/h (0 Bft)
02.02.2014 20:05 0,1 C 97 % 1017,9 hPa 0,0 l/m 0,0 km/h (0 Bft) N 360 -0,3 C 0,3 C 0,0 km/h (0 Bft)
02.02.2014 20:10 0,1 C 97 % 1017,9 hPa 0,0 l/m 0,0 km/h (0 Bft) N 360 -0,3 C 0,3 C 0,0 km/h (0 Bft)
02.02.2014 20:15 0,1 C 97 % 1017,9 hPa 0,0 l/m 0,0 km/h (0 Bft) N 360 -0,3 C 0,3 C 0,0 km/h (0 Bft)
02.02.2014 20:20 0,1 C 97 % 1017,9 hPa 0,0 l/m 0,0 km/h (0 Bft) N 360 -0,3 C 0,3 C 0,0 km/h (0 Bft)
02.02.2014 20:25 0,1 C 97 % 1017,8 hPa 0,0 l/m 0,0 km/h (0 Bft) N 360 -0,3 C 0,3 C 0,0 km/h (0 Bft)
02.02.2014 20:30 0,1 C 97 % 1017,8 hPa 0,0 l/m 0,0 km/h (0 Bft) N 360 -0,3 C 0,3 C 0,0 km/h (0 Bft)
02.02.2014 20:35 0,1 C 97 % 1017,8 hPa 0,0 l/m 0,0 km/h (0 Bft) N 360 -0,3 C 0,3 C 0,0 km/h (0 Bft)
02.02.2014 20:40 0,1 C 97 % 1017,8 hPa 0,0 l/m 0,0 km/h (0 Bft) N 360 -0,3 C 0,3 C 0,0 km/h (0 Bft)
02.02.2014 20:45 0,1 C 97 % 1019,8 hPa 0,0 l/m 0,0 km/h (0 Bft) N 360 -0,3 C 0,3 C 0,0 km/h (0 Bft)
02.02.2014 20:50 0,1 C 97 % 1019,8 hPa 0,0 l/m 0,0 km/h (0 Bft) N 360 -0,3 C 0,3 C 0,0 km/h (0 Bft)
02.02.2014 20:55 0,1 C 97 % 1019,8 hPa 0,0 l/m 0,0 km/h (0 Bft) N 360 -0,3 C 0,3 C 0,0 km/h (0 Bft)
02.02.2014 21:00 0,1 C 97 % 1019,8 hPa 0,0 l/m 0,0 km/h (0 Bft) N 360 -0,3 C 0,3 C 0,0 km/h (0 Bft)
02.02.2014 21:05 0,1 C 97 % 1021,2 hPa 0,0 l/m 0,0 km/h (0 Bft) N 360 -0,3 C 0,3 C 0,0 km/h (0 Bft)
02.02.2014 21:10 0,1 C 97 % 1021,2 hPa 0,0 l/m 0,0 km/h (0 Bft) N 360 -0,3 C 0,3 C 0,0 km/h (0 Bft)
02.02.2014 21:15 0,1 C 97 % 1021,2 hPa 0,0 l/m 0,0 km/h (0 Bft) N 360 -0,3 C 0,3 C 0,0 km/h (0 Bft)
02.02.2014 21:20 0,1 C 97 % 1021,2 hPa 0,0 l/m 0,0 km/h (0 Bft) N 360 -0,3 C 0,3 C 0,0 km/h (0 Bft)
02.02.2014 21:25 0,1 C 97 % 1022,3 hPa 0,0 l/m 0,0 km/h (0 Bft) N 360 -0,3 C 0,3 C 0,0 km/h (0 Bft)
02.02.2014 21:30 0,1 C 97 % 1022,3 hPa 0,0 l/m 0,0 km/h (0 Bft) N 360 -0,3 C 0,3 C 0,0 km/h (0 Bft)
02.02.2014 21:35 0,1 C 97 % 1022,3 hPa 0,0 l/m 0,0 km/h (0 Bft) N 360 -0,3 C 0,3 C 0,0 km/h (0 Bft)
02.02.2014 21:40 0,1 C 97 % 1022,3 hPa 0,0 l/m 0,0 km/h (0 Bft) N 360 -0,3 C 0,2 C 0,0 km/h (0 Bft)
02.02.2014 21:45 0,1 C 97 % 1023,4 hPa 0,0 l/m 0,0 km/h (0 Bft) N 360 -0,3 C 0,2 C 0,0 km/h (0 Bft)
02.02.2014 21:50 0,1 C 97 % 1023,4 hPa 0,0 l/m 0,0 km/h (0 Bft) N 360 -0,3 C 0,2 C 0,0 km/h (0 Bft)
02.02.2014 21:55 0,1 C 97 % 1023,4 hPa 0,0 l/m 0,0 km/h (0 Bft) N-NW 337 -0,3 C 0,2 C 0,0 km/h (0 Bft)
02.02.2014 22:00 0,0 C 97 % 1023,4 hPa 0,0 l/m 0,0 km/h (0 Bft) N-NW 337 -0,4 C 0,2 C 0,0 km/h (0 Bft)
02.02.2014 22:05 0,0 C 97 % 1025,3 hPa 0,0 l/m 0,0 km/h (0 Bft) N-NW 337 -0,4 C 0,2 C 0,0 km/h (0 Bft)
02.02.2014 22:10 0,0 C 97 % 1025,3 hPa 0,0 l/m 0,0 km/h (0 Bft) N-NW 337 -0,4 C 0,1 C 0,0 km/h (0 Bft)
02.02.2014 22:15 0,0 C 97 % 1025,3 hPa 0,0 l/m 0,0 km/h (0 Bft) N-NW 337 -0,4 C 0,1 C 0,0 km/h (0 Bft)
02.02.2014 22:20 0,0 C 97 % 1025,3 hPa 0,0 l/m 0,0 km/h (0 Bft) N-NW 337 -0,4 C 0,1 C 0,0 km/h (0 Bft)
02.02.2014 22:25 -0,1 C 97 % 1017,5 hPa 0,0 l/m 0,0 km/h (0 Bft) N-NW 337 -0,5 C 0,1 C 0,0 km/h (0 Bft)
02.02.2014 22:30 -0,1 C 97 % 1017,5 hPa 0,0 l/m 0,0 km/h (0 Bft) N-NW 337 -0,5 C 0,0 C 0,0 km/h (0 Bft)
02.02.2014 22:35 -0,1 C 97 % 1017,5 hPa 0,0 l/m 0,0 km/h (0 Bft) N-NW 337 -0,5 C 0,0 C 0,0 km/h (0 Bft)
02.02.2014 22:40 -0,1 C 97 % 1017,5 hPa 0,0 l/m 0,0 km/h (0 Bft) N-NW 337 -0,5 C 0,0 C 0,0 km/h (0 Bft)
02.02.2014 22:45 -0,1 C 97 % 1017,6 hPa 0,0 l/m 0,0 km/h (0 Bft) N-NW 337 -0,5 C 0,0 C 0,0 km/h (0 Bft)
02.02.2014 22:50 -0,1 C 97 % 1017,6 hPa 0,0 l/m 0,0 km/h (0 Bft) N-NW 337 -0,5 C 0,0 C 0,0 km/h (0 Bft)
02.02.2014 22:55 -0,1 C 97 % 1017,6 hPa 0,0 l/m 0,0 km/h (0 Bft) N-NW 337 -0,5 C 0,0 C 0,0 km/h (0 Bft)
02.02.2014 23:00 -0,2 C 97 % 1017,6 hPa 0,0 l/m 0,0 km/h (0 Bft) N-NW 337 -0,6 C -0,1 C 0,0 km/h (0 Bft)
02.02.2014 23:05 -0,1 C 97 % 1018,6 hPa 0,0 l/m 0,0 km/h (0 Bft) N-NW 337 -0,5 C -0,1 C 0,0 km/h (0 Bft)
02.02.2014 23:10 -0,2 C 97 % 1018,6 hPa 0,0 l/m 0,0 km/h (0 Bft) N-NW 337 -0,6 C -0,1 C 0,0 km/h (0 Bft)
02.02.2014 23:15 -0,1 C 97 % 1018,6 hPa 0,0 l/m 0,0 km/h (0 Bft) N-NW 337 -0,5 C -0,1 C 0,0 km/h (0 Bft)
02.02.2014 23:20 -0,2 C 97 % 1018,6 hPa 0,0 l/m 0,0 km/h (0 Bft) N-NW 337 -0,6 C -0,1 C 0,0 km/h (0 Bft)
02.02.2014 23:25 -0,2 C 97 % 1018,7 hPa 0,0 l/m 0,0 km/h (0 Bft) N-NW 337 -0,6 C -0,2 C 0,0 km/h (0 Bft)
02.02.2014 23:30 -0,2 C 97 % 1018,7 hPa 0,0 l/m 0,0 km/h (0 Bft) N-NW 337 -0,6 C -0,2 C 0,0 km/h (0 Bft)
02.02.2014 23:35 -0,3 C 97 % 1018,7 hPa 0,0 l/m 0,0 km/h (0 Bft) N-NW 337 -0,7 C -0,2 C 0,0 km/h (0 Bft)
02.02.2014 23:40 -0,3 C 97 % 1018,7 hPa 0,0 l/m 0,0 km/h (0 Bft) N-NW 337 -0,7 C -0,3 C 0,0 km/h (0 Bft)
02.02.2014 23:45 -0,3 C 97 % 1019,2 hPa 0,0 l/m 0,0 km/h (0 Bft) N-NW 337 -0,7 C -0,3 C 0,0 km/h (0 Bft)
02.02.2014 23:50 -0,3 C 97 % 1019,2 hPa 0,0 l/m 0,0 km/h (0 Bft) N-NW 337 -0,7 C -0,3 C 0,0 km/h (0 Bft)
02.02.2014 23:55 -0,3 C 97 % 1019,2 hPa 0,0 l/m 0,0 km/h (0 Bft) N-NW 337 -0,7 C -0,3 C 0,0 km/h (0 Bft)
_ Min-Zeit 00:05 02:25 00:20 - 23:55 - - 00:05 04:25 23:55
Minimum _ -1,2 C 80 % 1008,6 hPa - 0,0 km/h (0 Bft) - - -4,0 C -3,3 C 0,0 km/h (0 Bft)
_ Max-Zeit 12:00 23:55 22:20 23:55 04:25 - - 12:00 11:55 04:30
Maximum _ 5,9 C 97 % 1025,3 hPa 0,0 l/m 8,2 km/h
O (2 Bft)
- - 4,2 C 6,0 C 11,9 km/h
O (2 Bft)
Durchschnitt _ 1,0 C 92 % 1014,2 hPa #0,0 l/m 1,3 km/h (1 Bft) W-SW - -0,2 C 0,9 C 1,6 km/h (1 Bft)